Lid_Strength_Index
3 3 2 2 2 2 2 2 2 2 2 2 2 2 2 3 3 4 4 4 4 4
3 4 2 2 2 2 2 2 2 2 2 2 2 2 2 3 4 4 4 4 4 5
2 2 2 2 2 2 2 2 2 2 3 3 2 2 2 3 4 4 4 4 4 4
2 2 2 2 2 2 2 2 2 2 3 2 2 2 3 3 4 3 4 3 3 3
2 2 2 2 2 2 2 2 2 2 2 2 2 3 3 3 3 3 3 3 3 3
3 2 2 2 2 2 2 2 2 3 2 3 3 3 4 2 2 3 3 3 3 3
3 2 2 2 2 2 2 2 3 2 2 3 3 3 3 2 2 3 3 3 3 3
3 3 3 3 3 3 3 3 3 3 3 3 3 2 2 2 3 3 3 3 3 4
3 3 4 4 4 4 4 4 4 4 3 3 2 8 7 4 3 3 3 4 5 4
4 4 4 4 4 5 5 5 5 4 3 3 4 9 8 6 2 3 4 5 5 3
3 4 4 4 5 5 5 5 5 4 4 5 6 10 9 8 4 4 4 5 3 3
3 4 4 5 4 5 4 5 5 5 5 6 6 11 11 6 4 4 4 4 3 3
3 4 4 4 4 4 3 4 4 4 4 7 7 11 11 5 2 3 3 3 4 9
3 4 4 4 3 4 4 4 4 5 6 6 6 7 10 9 3 3 3 4 5 5